Regional Weather Roundup
Issued by NWS

Home | Current Version | Previous Version | Text Only | Print | Product List | Glossary Off
Versions: 1 2 3 4 5 6 7 8 9 10 11 12 13 14 15 16 17 18 19 20 21 22 23 24

000
ASUS45 KCYS 230710
RWRWY

WYOMING REGIONAL WEATHER ROUNDUP
NATIONAL WEATHER SERVICE CHEYENNE WY
100 AM MDT THU OCT 23 2014

NOTE:  "FAIR" INDICATES FEW OR NO CLOUDS BELOW 12,000 FEET
WITH NO SIGNIFICANT WEATHER AND/OR OBSTRUCTIONS TO VISIBILITY.

WYZ001-230800-
YELLOWSTONE NATIONAL PARK

CITY           SKY/WX    TMP DP  RH WIND       PRES   REMARKS
LK YELLOWSTONE   N/A     25  23  92 NW3       30.22F
W YELLOWSTONE  NOT AVBL

$$
WYZ002>013-054>058-071-098>099-230800-
NORTHERN WYOMING

CITY           SKY/WX    TMP DP  RH WIND       PRES   REMARKS
JACKSON        MOCLDY    28  27  93 N7        30.21S WCI  21
CODY           CLEAR     54  19  26 W17G26    30.04S
GREYBULL       CLEAR     36  21  54 S3        30.04S
WORLAND        CLEAR     30  19  63 CALM      30.04S
SHERIDAN       CLEAR     33  22  63 SW5       29.97F WCI  29
BUFFALO        CLEAR     41  15  35 SW9       30.03F
GILLETTE       PTCLDY    42  20  41 CALM      30.01F
HULETT         FAIR      39  27  60 S7        30.03  WCI  34
NEWCASTLE      FAIR      34  27  75 CALM      30.07

$$
WYZ014>020-022>026-101>103-230800-
CENTRAL WYOMING

CITY           SKY/WX    TMP DP  RH WIND       PRES   REMARKS
BIG PINEY      PTCLDY    27  20  75 E6        30.24F WCI  20
PINEDALE       MOSUNNY   27  21  80 CALM      30.25F
DUBOIS         FAIR      32  18  55 NW14      30.16S WCI  22
LANDER         CLEAR     40  20  44 SW3       30.10S
RIVERTON       CLEAR     38  18  44 W8        30.11S WCI  32
CASPER         CLEAR     40  17  39 SW8       30.11R WCI  34
DOUGLAS        CLEAR     36  16  44 CALM      30.10F

$$
WYZ021-027>030-104>119-230800-
SOUTHERN WYOMING

CITY           SKY/WX    TMP DP  RH WIND       PRES   REMARKS
EVANSTON       PTCLDY    41  22  46 SE5       30.25R
KEMMERER       MOSUNNY   36  19  51 NW8       30.26R WCI  29
FORT BRIDGER   FAIR      42  22  45 W5        30.27R
ROCK SPRINGS   PTCLDY    40  20  44 SW6       30.24S
DIXON          FAIR      34  32  92 CALM      30.27S
RAWLINS        CLEAR     44  31  60 W20       30.19F
SARATOGA       FAIR      34  30  86 S10       30.24S WCI  26
LARAMIE        PTCLDY    38  25  59 SE7       30.20R WCI  33
CHEYENNE       PTCLDY    40  29  64 W7        30.17S
TORRINGTON     PTCLDY    46  23  40 W3        30.09R
PINE BLUFFS    FAIR      36  34  93 CALM      30.15S

$$



USA.gov is the U.S. government's official web portal to all federal, state and local government web resources and services.